Simultaneous Nadir Overpasses (SNOs) Predictions

Prediction of SNOs near equator between AQUA and NPP Satellite Orbit:

Table of predicted SNOs near equator for the next 14.0 days since TLE Epoch: 12/27/2019
Index Date (AQUA) Time (AQUA) AQUA Lat,Lon Date (NPP) Time (NPP) NPP Lat,Lon Distance(km) Time Diff (sec)
1 12/29/2019 16:25:18 4.60, -43.13 12/29/2019 16:15:44 4.51, -43.42 34.05 574
2 12/29/2019 17:13:25 -0.07, 125.50 12/29/2019 17:05:07 0.05, 124.93 64.26 498
3 12/29/2019 18:01:41 -4.47, -65.92 12/29/2019 17:54:38 -4.66, -66.74 93.98 423
4 01/01/2020 08:41:24 3.20, 73.05 01/01/2020 08:32:14 3.14, 72.66 43.87 550
5 01/01/2020 09:29:31 1.32,-118.33 01/01/2020 09:21:36 1.48,-118.97 74.05 475
6 01/04/2020 00:09:37 -7.75, 20.34 01/03/2020 23:59:37 -7.79, 20.10 27.10 600
7 01/04/2020 00:57:30 1.81,-170.77 01/04/2020 00:48:43 1.71,-171.24 53.65 527
8 01/04/2020 01:45:36 2.77, -2.14 01/04/2020 01:38:05 2.90, -2.88 83.84 451
9 01/06/2020 16:25:20 -4.98, 136.82 01/06/2020 16:15:41 -4.89, 136.53 33.59 579
10 01/06/2020 17:13:36 0.43, -54.59 01/06/2020 17:05:12 0.29, -55.15 63.54 504
11 01/06/2020 18:01:42 4.15, 114.04 01/06/2020 17:54:34 4.33, 113.22 93.50 428
12 01/09/2020 08:41:24 -3.54,-106.99 01/09/2020 08:32:09 -3.47,-107.38 43.45 555
13 01/09/2020 09:29:39 -1.07, 61.61 01/09/2020 09:21:39 -1.19, 60.96 73.35 480




NCC Satellite Simultaneous Nadir Overpasses (SNOs) Prediction Service
